GW3809 Weather Reports


Display with metric or nautical units.
time (UTC)temp
F
wind
direction
speed
MPH
gust
MPH
rain 1hr
in
rain 24hr
in
rain mn
in
humidity
%
barometer
mb
20260903035814 86 178 7.0 12.0 0.00 0.00 0.00 76 1014.7
20260903035309 86 159 4.0 9.0 0.00 0.00 0.00 77 1014.9
20260903034805 86 139 12.0 16.0 0.00 0.00 0.00 77 1014.9
20260903034300 86 125 7.0 12.0 0.00 0.00 0.00 77 1014.8
20260903033754 86 156 7.0 12.0 0.00 0.00 0.00 76 1014.8
20260903033244 86 162 8.0 13.0 0.00 0.00 0.00 76 1014.4
20260903032738 87 179 6.0 10.0 0.00 0.00 0.00 76 1014.6
20260903032234 87 124 9.0 13.0 0.00 0.00 0.00 75 1014.6
20260903031730 87 154 8.0 14.0 0.00 0.00 0.00 75 1014.4
20260903031228 87 155 6.0 14.0 0.00 0.00 0.00 75 1014.6
20260903030720 87 131 13.0 18.0 0.00 0.00 0.00 75 1014.3
20260903030215 87 135 13.0 15.0 0.00 0.00 0.00 74 1014.1
20260903025710 87 129 7.0 18.0 0.00 0.00 0.00 74 1014.1
20260903025206 87 145 8.0 11.0 0.00 0.00 0.00 74 1014.2
20260903024705 87 140 11.0 17.0 0.00 0.00 0.00 73 1013.9
20260903024204 87 151 6.0 14.0 0.00 0.00 0.00 73 1013.9
20260903023700 87 141 6.0 16.0 0.00 0.00 0.00 73 1013.8
20260903023155 88 134 12.0 17.0 0.00 0.00 0.00 72 1013.8
20260903022650 88 150 9.0 11.0 0.00 0.00 0.00 72 1013.6
20260903022149 88 137 11.0 17.0 0.00 0.00 0.00 71 1013.4
20260903021644 88 153 8.0 15.0 0.00 0.00 0.00 71 1013.5
20260903021144 88 137 11.0 16.0 0.00 0.00 0.00 70 1013.1
20260903020639 89 156 7.0 16.0 0.00 0.00 0.00 69 1013.1
20260903020133 89 161 9.0 17.0 0.00 0.00 0.00 68 1013.0
20260903015630 89 138 8.0 22.0 0.00 0.00 0.00 68 1013.0
20260903015125 90 170 5.0 18.0 0.00 0.00 0.00 66 1012.7
20260903014624 90 162 8.0 19.0 0.00 0.00 0.00 65 1012.9
20260903014124 90 142 10.0 15.0 0.00 0.00 0.00 64 1012.7
20260903013619 91 152 14.0 20.0 0.00 0.00 0.00 63 1012.6
20260903013114 91 137 10.0 17.0 0.00 0.00 0.00 61 1012.5
20260903012613 91 145 13.0 19.0 0.00 0.00 0.00 61 1012.4
20260903012112 91 156 9.0 16.0 0.00 0.00 0.00 60 1012.2
20260903011612 92 160 11.0 14.0 0.00 0.00 0.00 59 1012.3
20260903011112 92 151 6.0 12.0 0.00 0.00 0.00 58 1012.4
20260903010607 93 145 5.0 13.0 0.00 0.00 0.00 56 1012.1
20260903010105 93 137 10.0 12.0 0.00 0.00 0.00 54 1012.1
20260903005600 93 149 6.0 13.0 0.00 0.00 0.00 52 1012.1
20260903005056 94 149 9.0 15.0 0.00 0.00 0.00 51 1012.0
20260903004556 94 133 11.0 16.0 0.00 0.00 0.00 50 1012.1
20260903004051 94 151 5.0 12.0 0.00 0.00 0.00 49 1012.0
20260903003546 95 157 9.0 19.0 0.00 0.00 0.00 48 1012.0
20260903003041 95 160 8.0 13.0 0.00 0.00 0.00 47 1011.9
20260903002536 95 172 6.0 13.0 0.00 0.00 0.00 46 1011.9
20260903002031 95 136 7.0 17.0 0.00 0.00 0.00 45 1011.9
20260903001526 96 133 8.0 13.0 0.00 0.00 0.00 46 1011.8
20260903001025 96 138 8.0 18.0 0.00 0.00 0.00 46 1012.0
20260903000521 96 119 11.0 19.0 0.00 0.00 0.00 46 1011.8
20260903000020 96 140 15.0 16.0 0.00 0.00 0.00 47 1011.7
20260902235514 96 138 11.0 16.0 0.00 0.00 0.00 47 1011.5
20260902235009 97 144 11.0 13.0 0.00 0.00 0.00 46 1011.4
20260902234503 97 139 11.0 15.0 0.00 0.00 0.00 46 1011.4
20260902234002 97 154 9.0 17.0 0.00 0.00 0.00 46 1011.6
20260902233456 98 144 9.0 16.0 0.00 0.00 0.00 45 1011.5
20260902232950 98 150 8.0 18.0 0.00 0.00 0.00 44 1011.5
20260902232445 98 132 10.0 15.0 0.00 0.00 0.00 44 1011.5
20260902231944 99 135 9.0 15.0 0.00 0.00 0.00 42 1011.5
20260902231439 99 147 9.0 13.0 0.00 0.00 0.00 41 1011.6
20260902230934 99 157 6.0 13.0 0.00 0.00 0.00 41 1011.5
20260902230433 100 137 16.0 18.0 0.00 0.00 0.00 39 1011.5
20260902225927 100 153 9.0 11.0 0.00 0.00 0.00 36 1011.5
20260902225417 100 146 8.0 17.0 0.00 0.00 0.00 36 1011.5
20260902224915 100 155 11.0 12.0 0.00 0.00 0.00 35 1011.6
20260902224415 100 184 4.0 15.0 0.00 0.00 0.00 35 1011.5
20260902223913 100 164 7.0 15.0 0.00 0.00 0.00 35 1011.6
20260902223412 100 190 4.0 12.0 0.00 0.00 0.00 35 1011.6
20260902222907 100 168 4.0 11.0 0.00 0.00 0.00 36 1011.5
20260902222405 100 132 13.0 17.0 0.00 0.00 0.00 36 1011.6
20260902221905 101 172 7.0 14.0 0.00 0.00 0.00 35 1011.5
20260902221404 101 132 12.0 14.0 0.00 0.00 0.00 36 1011.5
20260902220900 101 133 10.0 14.0 0.00 0.00 0.00 36 1011.4
20260902220400 101 145 6.0 16.0 0.00 0.00 0.00 36 1011.5
20260902215855 101 147 4.0 13.0 0.00 0.00 0.00 37 1011.6
20260902215350 101 155 7.0 12.0 0.00 0.00 0.00 37 1011.6
20260902214846 101 134 12.0 12.0 0.00 0.00 0.00 38 1011.6
20260902214345 101 132 6.0 15.0 0.00 0.00 0.00 37 1011.5
20260902213839 102 134 10.0 13.0 0.00 0.00 0.00 37 1011.7
20260902213335 101 155 5.0 18.0 0.00 0.00 0.00 37 1011.7
20260902212833 102 137 13.0 15.0 0.00 0.00 0.00 37 1011.8
20260902212331 101 178 5.0 11.0 0.00 0.00 0.00 38 1011.7
20260902211827 102 167 8.0 15.0 0.00 0.00 0.00 38 1011.8
20260902211323 102 135 11.0 14.0 0.00 0.00 0.00 39 1011.8
20260902210818 101 141 6.0 11.0 0.00 0.00 0.00 39 1012.0
20260902210317 102 129 9.0 13.0 0.00 0.00 0.00 39 1011.8
20260902205815 101 140 5.0 10.0 0.00 0.00 0.00 40 1011.9
20260902205310 102 136 9.0 12.0 0.00 0.00 0.00 39 1012.0
20260902204806 101 163 4.0 11.0 0.00 0.00 0.00 40 1012.1
20260902204301 101 145 9.0 12.0 0.00 0.00 0.00 41 1012.2
20260902203756 102 151 5.0 11.0 0.00 0.00 0.00 39 1012.2
20260902203251 102 154 5.0 8.0 0.00 0.00 0.00 38 1012.5
20260902202746 102 131 8.0 15.0 0.00 0.00 0.00 38 1012.5
20260902202242 103 166 7.0 9.0 0.00 0.00 0.00 38 1012.5
20260902201739 102 227 9.0 12.0 0.00 0.00 0.00 39 1012.7
20260902201237 102 153 3.0 9.0 0.00 0.00 0.00 39 1012.7
20260902200733 102 208 2.0 8.0 0.00 0.00 0.00 38 1012.7
20260902200228 103 225 9.0 10.0 0.00 0.00 0.00 36 1012.8
20260902195724 102 214 7.0 9.0 0.00 0.00 0.00 37 1013.0
20260902195222 101 171 3.0 11.0 0.00 0.00 0.00 38 1013.0
20260902194716 101 173 8.0 11.0 0.00 0.00 0.00 40 1013.0
20260902194211 100 194 4.0 5.0 0.00 0.00 0.00 41 1013.3
20260902193708 101 155 4.0 11.0 0.00 0.00 0.00 40 1013.3
20260902193203 101 156 5.0 14.0 0.00 0.00 0.00 39 1013.2
20260902192701 102 132 5.0 7.0 0.00 0.00 0.00 39 1013.4
20260902192200 100 228 5.0 9.0 0.00 0.00 0.00 42 1013.6
20260902191655 100 159 6.0 13.0 0.00 0.00 0.00 40 1013.7
20260902191155 101 257 4.0 6.0 0.00 0.00 0.00 40 1013.8
20260902190650 100 189 4.0 8.0 0.00 0.00 0.00 41 1013.9
20260902190145 100 248 3.0 12.0 0.00 0.00 0.00 43 1014.0
20260902185636 98 158 6.0 10.0 0.00 0.00 0.00 43 1014.1
20260902185131 99 188 5.0 10.0 0.00 0.00 0.00 44 1014.3
20260902184626 99 157 9.0 11.0 0.00 0.00 0.00 43 1014.1
20260902184122 99 162 4.0 8.0 0.00 0.00 0.00 43 1014.3
20260902183618 99 149 7.0 7.0 0.00 0.00 0.00 43 1014.3
20260902183114 99 211 5.0 9.0 0.00 0.00 0.00 43 1014.6
20260902182610 98 182 6.0 13.0 0.00 0.00 0.00 45 1014.6
20260902182106 98 161 6.0 9.0 0.00 0.00 0.00 47 1014.5
20260902181602 98 142 9.0 15.0 0.00 0.00 0.00 46 1014.6
20260902181056 98 215 4.0 10.0 0.00 0.00 0.00 47 1014.8
20260902180555 98 214 2.0 12.0 0.00 0.00 0.00 47 1014.8
20260902180052 97 161 4.0 9.0 0.00 0.00 0.00 46 1015.1
20260902175551 97 188 4.0 12.0 0.00 0.00 0.00 46 1015.2
20260902175047 97 136 6.0 8.0 0.00 0.00 0.00 49 1015.2
20260902174543 97 151 7.0 11.0 0.00 0.00 0.00 48 1015.3
20260902174038 97 195 6.0 9.0 0.00 0.00 0.00 49 1015.3
20260902173538 97 192 4.0 10.0 0.00 0.00 0.00 49 1015.4
20260902173033 97 231 3.0 7.0 0.00 0.00 0.00 50 1015.5
20260902172532 96 206 4.0 12.0 0.00 0.00 0.00 52 1015.6
20260902172028 95 178 4.0 8.0 0.00 0.00 0.00 53 1015.6
20260902171523 95 176 5.0 12.0 0.00 0.00 0.00 52 1015.6
20260902171019 96 141 9.0 11.0 0.00 0.00 0.00 52 1015.8
20260902170514 95 178 7.0 15.0 0.00 0.00 0.00 54 1015.9
20260902170010 95 179 6.0 9.0 0.00 0.00 0.00 54 1016.0
20260902165503 96 194 7.0 10.0 0.00 0.00 0.00 52 1016.0
20260902164958 95 152 7.0 10.0 0.00 0.00 0.00 55 1015.9
20260902164453 95 160 6.0 12.0 0.00 0.00 0.00 55 1015.9
20260902163951 94 198 6.0 11.0 0.00 0.00 0.00 56 1016.1
20260902163447 94 181 6.0 13.0 0.00 0.00 0.00 56 1016.1
20260902162944 94 204 7.0 7.0 0.00 0.00 0.00 58 1016.1
20260902162440 94 183 7.0 10.0 0.00 0.00 0.00 58 1016.3
20260902161935 93 184 5.0 9.0 0.00 0.00 0.00 58 1016.2
20260902161430 93 191 7.0 13.0 0.00 0.00 0.00 58 1016.2
20260902160926 93 180 7.0 8.0 0.00 0.00 0.00 60 1016.4
20260902160421 92 191 5.0 11.0 0.00 0.00 0.00 59 1016.3
20260902155919 92 189 4.0 9.0 0.00 0.00 0.00 62 1016.2
20260902155414 91 173 8.0 11.0 0.00 0.00 0.00 63 1016.2
20260902154909 91 217 7.0 11.0 0.00 0.00 0.00 63 1016.0
20260902154404 91 213 7.0 14.0 0.00 0.00 0.00 63 1016.3
20260902153903 90 178 5.0 9.0 0.00 0.00 0.00 64 1016.3
20260902153402 90 142 7.0 15.0 0.00 0.00 0.00 65 1016.3
20260902152853 89 158 6.0 13.0 0.00 0.00 0.00 66 1016.5
20260902152348 89 166 3.0 14.0 0.00 0.00 0.00 67 1016.3
20260902151843 89 186 5.0 9.0 0.00 0.00 0.00 68 1016.5
20260902151339 89 179 6.0 10.0 0.00 0.00 0.00 68 1016.3
20260902150833 89 188 8.0 13.0 0.00 0.00 0.00 68 1016.1
20260902150329 89 166 7.0 14.0 0.00 0.00 0.00 69 1016.4
20260902145829 88 220 4.0 10.0 0.00 0.00 0.00 70 1016.4
20260902145325 88 188 5.0 10.0 0.00 0.00 0.00 71 1016.1
20260902144819 87 169 8.0 9.0 0.00 0.00 0.00 73 1016.3
20260902144315 87 169 4.0 11.0 0.00 0.00 0.00 73 1016.1
20260902143810 87 172 6.0 10.0 0.00 0.00 0.00 74 1016.2
20260902143304 87 164 7.0 12.0 0.00 0.00 0.00 74 1016.2
20260902142800 86 160 5.0 10.0 0.00 0.00 0.00 77 1016.2
20260902142251 86 164 7.0 10.0 0.00 0.00 0.00 77 1016.1
20260902141751 85 160 7.0 11.0 0.00 0.00 0.00 78 1016.4
20260902141246 85 196 5.0 10.0 0.00 0.00 0.00 78 1016.2
20260902140740 85 178 6.0 10.0 0.00 0.00 0.00 78 1016.2
20260902140235 85 183 3.0 9.0 0.00 0.00 0.00 80 1016.4
20260902135734 85 194 7.0 10.0 0.00 0.00 0.00 80 1016.4
20260902135231 84 159 4.0 10.0 0.00 0.00 0.00 81 1016.2
20260902134730 84 183 3.0 8.0 0.00 0.00 0.00 81 1016.4
20260902134225 84 204 6.0 8.0 0.00 0.00 0.00 81 1016.3
20260902133721 84 175 3.0 6.0 0.00 0.00 0.00 82 1016.0
20260902133219 84 215 4.0 5.0 0.00 0.00 0.00 83 1016.2
20260902132715 84 201 4.0 6.0 0.00 0.00 0.00 83 1016.2
20260902132210 83 190 4.0 7.0 0.00 0.00 0.00 83 1016.1
20260902131706 83 169 4.0 7.0 0.00 0.00 0.00 84 1016.1
20260902131202 83 173 5.0 10.0 0.00 0.00 0.00 84 1016.0
20260902130658 83 176 3.0 6.0 0.00 0.00 0.00 84 1015.8
20260902130153 82 211 3.0 7.0 0.00 0.00 0.00 84 1015.7
20260902125648 82 176 3.0 8.0 0.00 0.00 0.00 85 1015.8
20260902125144 82 159 3.0 5.0 0.00 0.00 0.00 85 1015.9
20260902124640 82 201 4.0 5.0 0.00 0.00 0.00 85 1015.7
20260902124140 82 202 2.0 5.0 0.00 0.00 0.00 85 1015.5
20260902123636 82 190 4.0 6.0 0.00 0.00 0.00 85 1015.5
20260902123136 82 153 3.0 7.0 0.00 0.00 0.00 85 1015.2
20260902122630 82 176 3.0 6.0 0.00 0.00 0.00 85 1015.3
20260902122126 82 179 4.0 6.0 0.00 0.00 0.00 85 1015.5
20260902121621 82 184 5.0 5.0 0.00 0.00 0.00 85 1015.5
20260902121116 82 163 3.0 7.0 0.00 0.00 0.00 85 1015.6
20260902120612 82 209 3.0 4.0 0.00 0.00 0.00 85 1015.5
20260902120109 82 192 3.0 5.0 0.00 0.00 0.00 85 1015.7
20260902115603 82 169 3.0 6.0 0.00 0.00 0.00 85 1015.5
20260902115059 82 178 4.0 6.0 0.00 0.00 0.00 84 1015.6
20260902114555 82 182 4.0 6.0 0.00 0.00 0.00 84 1015.5
20260902114054 82 178 3.0 6.0 0.00 0.00 0.00 84 1015.5
20260902113550 82 168 3.0 6.0 0.00 0.00 0.00 84 1015.4
20260902113044 82 174 3.0 4.0 0.00 0.00 0.00 84 1015.4
20260902112535 82 188 4.0 7.0 0.00 0.00 0.00 84 1015.5
20260902112031 82 209 4.0 6.0 0.00 0.00 0.00 84 1015.4
20260902111527 82 177 4.0 6.0 0.00 0.00 0.00 83 1015.4
20260902111022 82 181 4.0 6.0 0.00 0.00 0.00 83 1015.5
20260902110519 82 181 4.0 8.0 0.00 0.00 0.00 83 1015.3
20260902110014 82 175 5.0 7.0 0.00 0.00 0.00 83 1015.2
20260902105508 82 173 2.0 5.0 0.00 0.00 0.00 83 1015.2
20260902105007 82 189 4.0 6.0 0.00 0.00 0.00 83 1015.1
20260902104503 82 187 4.0 7.0 0.00 0.00 0.00 83 1015.3
20260902103958 83 177 4.0 6.0 0.00 0.00 0.00 82 1015.4
20260902103454 83 149 4.0 7.0 0.00 0.00 0.00 82 1015.2
20260902102948 83 177 2.0 5.0 0.00 0.00 0.00 82 1015.2
20260902102446 83 193 5.0 9.0 0.00 0.00 0.00 82 1015.3
20260902101942 83 188 7.0 13.0 0.00 0.00 0.00 82 1015.3
20260902101442 83 160 5.0 7.0 0.00 0.00 0.00 82 1015.3
20260902100935 83 178 6.0 8.0 0.00 0.00 0.00 82 1015.4
20260902100430 83 188 5.0 7.0 0.00 0.00 0.00 82 1015.3
20260902095925 83 208 1.0 6.0 0.00 0.00 0.00 82 1015.2
20260902095419 83 166 5.0 8.0 0.00 0.00 0.00 82 1015.4
20260902094918 83 169 3.0 8.0 0.00 0.00 0.00 82 1015.5
20260902094414 83 156 5.0 9.0 0.00 0.00 0.00 82 1015.4
20260902093909 83 190 7.0 8.0 0.00 0.00 0.00 82 1015.5
20260902093404 83 160 2.0 7.0 0.00 0.00 0.00 82 1015.6
20260902092903 83 180 4.0 11.0 0.00 0.00 0.00 81 1015.7
20260902092358 83 164 6.0 9.0 0.00 0.00 0.00 81 1015.4
20260902091853 83 184 6.0 11.0 0.00 0.00 0.00 81 1015.5
20260902091348 83 160 4.0 6.0 0.00 0.00 0.00 81 1015.6
20260902090845 83 175 4.0 9.0 0.00 0.00 0.00 81 1015.4
20260902090344 83 187 4.0 8.0 0.00 0.00 0.00 81 1015.5
20260902085843 83 193 4.0 8.0 0.00 0.00 0.00 81 1015.3
20260902085338 83 160 5.0 11.0 0.00 0.00 0.00 81 1015.5
20260902084834 83 245 3.0 6.0 0.00 0.00 0.00 81 1015.4
20260902084325 83 184 6.0 8.0 0.00 0.00 0.00 81 1015.4
20260902083820 83 169 4.0 9.0 0.00 0.00 0.00 81 1015.5
20260902083320 83 178 4.0 9.0 0.00 0.00 0.00 80 1015.3
20260902082815 83 164 6.0 11.0 0.00 0.00 0.00 80 1015.4
20260902082311 84 182 4.0 8.0 0.00 0.00 0.00 80 1015.4
20260902081807 84 214 5.0 9.0 0.00 0.00 0.00 80 1015.4
20260902081303 84 173 2.0 8.0 0.00 0.00 0.00 80 1015.4
20260902080757 84 184 5.0 12.0 0.00 0.00 0.00 80 1015.5
20260902080255 84 186 4.0 9.0 0.00 0.00 0.00 80 1015.3
20260902075753 84 166 5.0 11.0 0.00 0.00 0.00 80 1015.5
20260902075249 84 167 5.0 9.0 0.00 0.00 0.00 79 1015.7
20260902074744 84 170 8.0 9.0 0.00 0.00 0.00 79 1015.6
20260902074239 84 198 4.0 7.0 0.00 0.00 0.00 79 1015.8
20260902073735 84 175 5.0 11.0 0.00 0.00 0.00 79 1015.7
20260902073230 84 160 5.0 11.0 0.00 0.00 0.00 79 1015.9
20260902072726 84 164 4.0 9.0 0.00 0.00 0.00 79 1016.0
20260902072222 84 185 2.0 6.0 0.00 0.00 0.00 79 1015.8
20260902071719 84 151 7.0 13.0 0.00 0.00 0.00 79 1016.1
20260902071213 84 189 4.0 11.0 0.00 0.00 0.00 79 1015.9
20260902070710 84 186 6.0 8.0 0.00 0.00 0.00 79 1016.0
20260902070209 84 171 6.0 11.0 0.00 0.00 0.00 79 1016.1
20260902065708 84 216 7.0 9.0 0.00 0.00 0.00 79 1016.1
20260902065204 84 173 8.0 13.0 0.00 0.00 0.00 79 1016.1
20260902064659 84 170 7.0 12.0 0.00 0.00 0.00 79 1016.2
20260902064155 84 176 4.0 9.0 0.00 0.00 0.00 79 1016.2
20260902063650 84 171 6.0 14.0 0.00 0.00 0.00 79 1016.4
20260902063144 84 162 8.0 11.0 0.00 0.00 0.00 79 1016.3
20260902062643 84 156 5.0 9.0 0.00 0.00 0.00 79 1016.2
20260902062138 84 165 7.0 9.0 0.00 0.00 0.00 79 1016.4
20260902061638 84 182 5.0 10.0 0.00 0.00 0.00 79 1016.2
20260902061134 84 174 4.0 8.0 0.00 0.00 0.00 79 1016.3
20260902060630 84 153 6.0 14.0 0.00 0.00 0.00 78 1016.2
20260902060126 84 155 8.0 12.0 0.00 0.00 0.00 78 1016.3
20260902055622 84 149 5.0 8.0 0.00 0.00 0.00 78 1016.3
20260902055117 84 171 5.0 14.0 0.00 0.00 0.00 78 1016.5
20260902054612 84 173 6.0 13.0 0.00 0.00 0.00 78 1016.4
20260902054108 84 175 6.0 14.0 0.00 0.00 0.00 78 1016.5
20260902053603 84 165 5.0 7.0 0.00 0.00 0.00 78 1016.4
20260902053103 84 166 5.0 15.0 0.00 0.00 0.00 78 1016.6
20260902052557 84 150 7.0 10.0 0.00 0.00 0.00 78 1016.5
20260902052053 84 165 5.0 9.0 0.00 0.00 0.00 78 1016.3
20260902051552 84 169 4.0 10.0 0.00 0.00 0.00 78 1016.4
20260902051051 85 179 4.0 13.0 0.00 0.00 0.00 78 1016.4
20260902050546 85 169 3.0 9.0 0.00 0.00 0.00 78 1016.3
20260902050042 85 180 4.0 8.0 0.00 0.00 0.00 78 1016.5
20260902045538 85 169 4.0 15.0 0.00 0.00 0.00 78 1016.6
20260902045033 85 172 9.0 13.0 0.00 0.00 0.00 78 1016.4
20260902044528 85 180 5.0 13.0 0.00 0.00 0.00 78 1016.4
20260902044023 85 133 11.0 12.0 0.00 0.00 0.00 77 1016.4
20260902043518 85 176 7.0 12.0 0.00 0.00 0.00 77 1016.5
20260902043013 85 148 7.0 8.0 0.00 0.00 0.00 77 1016.2
20260902042513 85 181 5.0 14.0 0.00 0.00 0.00 76 1016.5
20260902042008 85 148 4.0 9.0 0.00 0.00 0.00 76 1016.5
20260902041508 85 152 3.0 13.0 0.00 0.00 0.00 76 1016.3
20260902041002 85 147 7.0 12.0 0.00 0.00 0.00 76 1016.2
20260902040457 85 142 8.0 12.0 0.00 0.00 0.00 76 1016.2
20260902035956 85 132 10.0 17.0 0.00 0.00 0.00 76 1016.2